QPF
0.00 0.00 0.00 0.00 0.00 0.00 0.00 0.00 0.05 0.04 0.09 0.06 0.02 0.00 0.00 0.00 0.00 0.00 0.00 0.00 0.00 0.00 0.00 0.00 0.00 0.00 0.00 0.00 0.00 0.00 0.00 0.00 0.00 0.00 0.01 0.01 0.01 0.01 0.01 0.01 0.02 0.03 0.04 0.05
0.00 0.00 0.00 0.00 0.00 0.00 0.00 0.00 0.00 0.01 0.03 0.01 0.00 0.00 0.00 0.00 0.00 0.00 0.00 0.00 0.00 0.00 0.00 0.00 0.00 0.00 0.00 0.00 0.00 0.00 0.01 0.01 0.01 0.01 0.01 0.01 0.01 0.01 0.01 0.01 0.02 0.02 0.03 0.05
0.00 0.00 0.01 0.04 0.01 0.00 0.00 0.00 0.00 0.01 0.01 0.00 0.00 0.00 0.00 0.00 0.00 0.00 0.00 0.00 0.00 0.00 0.00 0.00 0.00 0.00 0.00 0.00 0.00 0.00 0.00 0.00 0.00 0.01 0.01 0.01 0.01 0.01 0.02 0.02 0.02 0.03 0.03 0.05
0.00 0.00 0.04 0.04 0.01 0.00 0.00 0.00 0.00 0.00 0.00 0.00 0.00 0.00 0.00 0.00 0.00 0.00 0.00 0.00 0.00 0.00 0.00 0.00 0.00 0.00 0.00 0.00 0.00 0.00 0.00 0.00 0.00 0.00 0.00 0.01 0.01 0.02 0.03 0.04 0.04 0.03 0.03 0.04
0.00 0.00 0.04 0.02 0.00 0.00 0.00 0.00 0.00 0.00 0.00 0.00 0.00 0.00 0.00 0.00 0.00 0.00 0.00 0.00 0.00 0.00 0.00 0.00 0.00 0.00 0.00 0.00 0.00 0.00 0.00 0.00 0.00 0.00 0.00 0.01 0.02 0.03 0.04 0.05 0.05 0.04 0.03 0.04
0.00 0.00 0.02 0.02 0.00 0.00 0.00 0.00 0.00 0.00 0.00 0.00 0.00 0.00 0.00 0.00 0.00 0.00 0.00 0.00 0.00 0.00 0.00 0.00 0.00 0.00 0.00 0.00 0.00 0.00 0.00 0.00 0.00 0.00 0.01 0.02 0.03 0.04 0.04 0.06 0.05 0.03 0.03 0.04
0.00 0.00 0.01 0.00 0.00 0.00 0.00 0.00 0.00 0.00 0.00 0.00 0.00 0.00 0.00 0.00 0.00 0.00 0.00 0.00 0.00 0.00 0.00 0.00 0.00 0.00 0.00 0.00 0.00 0.00 0.00 0.00 0.00 0.01 0.01 0.02 0.03 0.05 0.06 0.06 0.07 0.06 0.05 0.05
0.00 0.00 0.02 0.00 0.00 0.00 0.00 0.00 0.00 0.00 0.00 0.00 0.00 0.00 0.00 0.00 0.00 0.00 0.00 0.00 0.00 0.00 0.00 0.00 0.00 0.01 0.01 0.01 0.01 0.01 0.01 0.01 0.01 0.02 0.02 0.01 0.04 0.06 0.07 0.08 0.09 0.07 0.07 0.07
0.00 0.00 0.00 0.00 0.00 0.00 0.00 0.00 0.00 0.00 0.00 0.00 0.00 0.00 0.00 0.00 0.00 0.00 0.00 0.00 0.00 0.00 0.00 0.00 0.01 0.01 0.01 0.01 0.01 0.01 0.02 0.02 0.03 0.04 0.04 0.04 0.04 0.05 0.05 0.07 0.07 0.07 0.09 0.09
0.00 0.00 0.00 0.00 0.00 0.00 0.00 0.00 0.00 0.00 0.00 0.00 0.00 0.00 0.00 0.00 0.00 0.00 0.00 0.00 0.01 0.01 0.01 0.01 0.01 0.01 0.01 0.01 0.02 0.03 0.03 0.04 0.04 0.04 0.04 0.04 0.05 0.05 0.04 0.04 0.06 0.08 0.09 0.10
0.00 0.00 0.00 0.00 0.00 0.00 0.00 0.00 0.00 0.00 0.00 0.00 0.00 0.00 0.00 0.00 0.00 0.00 0.01 0.00 0.01 0.01 0.01 0.01 0.01 0.01 0.01 0.02 0.03 0.04 0.04 0.04 0.04 0.04 0.04 0.05 0.05 0.05 0.04 0.05 0.05 0.06 0.07 0.09
0.00 0.00 0.00 0.00 0.00 0.00 0.00 0.00 0.00 0.00 0.00 0.00 0.00 0.00 0.00 0.00 0.00 0.01 0.00 0.01 0.01 0.01 0.01 0.01 0.02 0.02 0.02 0.03 0.05 0.06 0.06 0.05 0.05 0.05 0.05 0.05 0.04 0.04 0.02 0.01 0.01 0.00 0.01 0.03
0.00 0.00 0.00 0.00 0.00 0.00 0.00 0.00 0.00 0.00 0.00 0.00 0.00 0.00 0.00 0.00 0.00 0.00 0.01 0.02 0.02 0.02 0.02 0.02 0.02 0.03 0.03 0.04 0.05 0.06 0.06 0.06 0.06 0.06 0.05 0.05 0.04 0.05 0.05 0.04 0.02 0.00 0.00 0.00
0.00 0.00 0.00 0.00 0.00 0.00 0.00 0.00 0.00 0.00 0.00 0.00 0.00 0.00 0.00 0.00 0.00 0.01 0.02 0.03 0.03 0.03 0.03 0.03 0.04 0.04 0.03 0.04 0.06 0.06 0.06 0.06 0.07 0.06 0.05 0.05 0.05 0.05 0.06 0.07 0.08 0.07 0.03 0.01
0.00 0.00 0.00 0.00 0.00 0.00 0.00 0.00 0.00 0.00 0.00 0.00 0.00 0.00 0.00 0.01 0.01 0.03 0.04 0.05 0.06 0.06 0.05 0.06 0.06 0.06 0.06 0.07 0.07 0.07 0.07 0.07 0.08 0.08 0.07 0.06 0.06 0.06 0.06 0.07 0.09 0.11 0.10 0.06
0.00 0.00 0.00 0.00 0.00 0.00 0.00 0.00 0.00 0.00 0.00 0.00 0.00 0.00 0.00 0.01 0.02 0.04 0.05 0.08 0.11 0.10 0.09 0.09 0.09 0.08 0.08 0.08 0.08 0.09 0.09 0.08 0.08 0.08 0.07 0.06 0.06 0.06 0.07 0.08 0.09 0.10 0.10 0.10
0.00 0.00 0.00 0.00 0.00 0.00 0.00 0.00 0.00 0.00 0.00 0.00 0.00 0.00 0.00 0.02 0.04 0.06 0.07 0.08 0.10 0.11 0.11 0.12 0.12 0.10 0.10 0.11 0.12 0.12 0.11 0.09 0.07 0.07 0.07 0.07 0.07 0.07 0.08 0.09 0.09 0.10 0.10 0.10
0.00 0.00 0.00 0.00 0.00 0.00 0.00 0.00 0.00 0.00 0.00 0.00 0.00 0.00 0.01 0.04 0.08 0.11 0.12 0.11 0.10 0.10 0.10 0.12 0.13 0.12 0.13 0.14 0.13 0.12 0.11 0.10 0.08 0.08 0.09 0.09 0.08 0.08 0.09 0.08 0.08 0.09 0.10 0.08
0.00 0.00 0.00 0.00 0.00 0.00 0.00 0.00 0.00 0.00 0.00 0.00 0.00 0.01 0.02 0.04 0.10 0.12 0.12 0.12 0.13 0.14 0.14 0.14 0.13 0.13 0.14 0.13 0.11 0.11 0.09 0.08 0.08 0.08 0.09 0.08 0.06 0.07 0.07 0.07 0.08 0.09 0.09 0.08
0.00 0.00 0.00 0.00 0.00 0.00 0.00 0.00 0.00 0.00 0.00 0.00 0.00 0.01 0.02 0.04 0.09 0.11 0.11 0.10 0.13 0.17 0.18 0.15 0.13 0.13 0.13 0.11 0.09 0.09 0.09 0.09 0.10 0.09 0.09 0.09 0.08 0.08 0.07 0.07 0.06 0.08 0.08 0.07
0.00 0.00 0.00 0.00 0.00 0.00 0.00 0.00 0.00 0.00 0.00 0.00 0.01 0.01 0.02 0.04 0.07 0.10 0.12 0.12 0.11 0.12 0.14 0.13 0.13 0.11 0.09 0.08 0.06 0.07 0.09 0.09 0.09 0.09 0.09 0.09 0.10 0.09 0.08 0.07 0.06 0.06 0.06 0.06
0.00 0.00 0.00 0.00 0.00 0.00 0.00 0.00 0.00 0.00 0.00 0.00 0.01 0.01 0.02 0.05 0.07 0.08 0.09 0.11 0.12 0.13 0.12 0.12 0.10 0.07 0.05 0.06 0.08 0.08 0.08 0.08 0.08 0.08 0.08 0.08 0.08 0.08 0.07 0.06 0.05 0.05 0.05 0.05
0.00 0.00 0.00 0.00 0.00 0.00 0.00 0.00 0.00 0.00 0.00 0.00 0.01 0.01 0.03 0.05 0.07 0.10 0.11 0.10 0.11 0.13 0.12 0.11 0.08 0.05 0.04 0.06 0.08 0.07 0.06 0.07 0.07 0.07 0.07 0.07 0.06 0.06 0.06 0.05 0.05 0.05 0.04 0.03
0.00 0.00 0.00 0.00 0.00 0.00 0.00 0.00 0.00 0.00 0.00 0.00 0.00 0.01 0.02 0.05 0.06 0.06 0.09 0.11 0.12 0.13 0.11 0.09 0.07 0.05 0.05 0.07 0.07 0.07 0.06 0.06 0.07 0.07 0.07 0.08 0.07 0.06 0.06 0.05 0.05 0.04 0.03 0.02
0.00 0.00 0.00 0.00 0.00 0.00 0.00 0.00 0.00 0.00 0.00 0.00 0.00 0.00 0.01 0.03 0.05 0.05 0.06 0.08 0.10 0.11 0.10 0.09 0.07 0.06 0.07 0.08 0.07 0.07 0.06 0.05 0.06 0.08 0.09 0.09 0.08 0.07 0.08 0.07 0.05 0.04 0.03 0.02
0.00 0.00 0.00 0.00 0.00 0.00 0.00 0.00 0.00 0.00 0.00 0.00 0.00 0.00 0.01 0.01 0.02 0.03 0.04 0.06 0.07 0.09 0.09 0.08 0.07 0.07 0.07 0.07 0.08 0.09 0.09 0.08 0.08 0.10 0.12 0.11 0.10 0.10 0.10 0.07 0.04 0.03 0.02 0.02
0.00 0.00 0.00 0.00 0.00 0.00 0.00 0.00 0.00 0.00 0.01 0.00 0.00 0.00 0.01 0.01 0.01 0.01 0.02 0.04 0.06 0.07 0.07 0.06 0.05 0.05 0.05 0.06 0.07 0.09 0.12 0.14 0.14 0.14 0.13 0.10 0.10 0.10 0.09 0.06 0.04 0.02 0.02 0.01
MSLP
1009.70 1009.54 1009.45 1009.48 1009.67 1010.02 1010.49 1011.06 1011.65 1012.20 1012.66 1012.99 1013.16 1013.19 1013.10 1012.92 1012.69 1012.44 1012.21 1012.02 1011.85 1011.71 1011.60 1011.49 1011.37 1011.26 1011.13 1011.00 1010.87 1010.75 1010.64 1010.54 1010.45 1010.34 1010.22 1010.07 1009.88 1009.64 1009.36 1009.04 1008.68 1008.31 1007.93 1007.56
1010.36 1010.29 1010.25 1010.27 1010.41 1010.68 1011.05 1011.51 1011.99 1012.46 1012.85 1013.13 1013.27 1013.28 1013.15 1012.93 1012.65 1012.33 1012.01 1011.72 1011.46 1011.23 1011.04 1010.86 1010.70 1010.54 1010.37 1010.20 1010.04 1009.88 1009.73 1009.59 1009.46 1009.35 1009.24 1009.12 1008.98 1008.82 1008.63 1008.39 1008.12 1007.82 1007.51 1007.19
1011.02 1011.06 1011.09 1011.15 1011.26 1011.46 1011.74 1012.07 1012.42 1012.76 1013.03 1013.21 1013.26 1013.19 1012.99 1012.70 1012.34 1011.95 1011.56 1011.18 1010.84 1010.55 1010.29 1010.06 1009.85 1009.64 1009.44 1009.23 1009.02 1008.82 1008.62 1008.45 1008.30 1008.19 1008.09 1008.01 1007.94 1007.86 1007.75 1007.61 1007.44 1007.23 1006.99 1006.73
1011.63 1011.78 1011.89 1011.99 1012.11 1012.25 1012.43 1012.64 1012.84 1013.02 1013.14 1013.17 1013.09 1012.91 1012.62 1012.24 1011.80 1011.34 1010.88 1010.45 1010.06 1009.72 1009.42 1009.15 1008.91 1008.67 1008.44 1008.20 1007.95 1007.71 1007.48 1007.27 1007.11 1006.99 1006.91 1006.87 1006.85 1006.84 1006.81 1006.76 1006.67 1006.54 1006.37 1006.17
1012.14 1012.39 1012.57 1012.72 1012.83 1012.93 1013.02 1013.10 1013.16 1013.17 1013.12 1013.00 1012.78 1012.46 1012.07 1011.61 1011.11 1010.59 1010.09 1009.63 1009.21 1008.85 1008.53 1008.25 1007.99 1007.74 1007.49 1007.22 1006.95 1006.68 1006.42 1006.20 1006.01 1005.88 1005.81 1005.80 1005.81 1005.85 1005.89 1005.90 1005.87 1005.80 1005.68 1005.53
1012.55 1012.86 1013.09 1013.26 1013.37 1013.42 1013.43 1013.40 1013.31 1013.17 1012.97 1012.69 1012.34 1011.92 1011.43 1010.91 1010.36 1009.81 1009.29 1008.82 1008.40 1008.04 1007.73 1007.45 1007.19 1006.94 1006.68 1006.40 1006.12 1005.83 1005.55 1005.30 1005.10 1004.96 1004.88 1004.86 1004.89 1004.95 1005.01 1005.05 1005.07 1005.03 1004.96 1004.85
1012.84 1013.17 1013.42 1013.59 1013.68 1013.69 1013.62 1013.49 1013.28 1013.02 1012.69 1012.29 1011.84 1011.33 1010.78 1010.22 1009.65 1009.10 1008.59 1008.13 1007.72 1007.37 1007.07 1006.81 1006.56 1006.31 1006.05 1005.78 1005.48 1005.18 1004.89 1004.62 1004.39 1004.23 1004.12 1004.08 1004.10 1004.14 1004.20 1004.26 1004.29 1004.28 1004.23 1004.16
1013.03 1013.33 1013.56 1013.71 1013.76 1013.72 1013.59 1013.37 1013.08 1012.72 1012.29 1011.82 1011.30 1010.75 1010.18 1009.61 1009.05 1008.52 1008.03 1007.59 1007.21 1006.88 1006.59 1006.33 1006.09 1005.85 1005.59 1005.31 1005.01 1004.70 1004.39 1004.09 1003.84 1003.64 1003.49 1003.42 1003.39 1003.41 1003.45 1003.50 1003.54 1003.55 1003.54 1003.52
1013.12 1013.37 1013.55 1013.65 1013.66 1013.56 1013.37 1013.09 1012.73 1012.31 1011.84 1011.32 1010.78 1010.22 1009.66 1009.11 1008.58 1008.08 1007.62 1007.20 1006.84 1006.52 1006.24 1005.98 1005.73 1005.47 1005.21 1004.92 1004.61 1004.28 1003.95 1003.63 1003.34 1003.10 1002.92 1002.79 1002.72 1002.70 1002.72 1002.76 1002.81 1002.86 1002.90 1002.93
1013.13 1013.31 1013.44 1013.48 1013.43 1013.28 1013.03 1012.70 1012.30 1011.85 1011.35 1010.83 1010.30 1009.77 1009.24 1008.72 1008.23 1007.76 1007.32 1006.92 1006.56 1006.23 1005.93 1005.64 1005.37 1005.09 1004.80 1004.49 1004.16 1003.81 1003.46 1003.12 1002.80 1002.52 1002.29 1002.12 1002.02 1001.97 1001.97 1002.01 1002.09 1002.18 1002.29 1002.41
1013.08 1013.21 1013.27 1013.25 1013.14 1012.93 1012.64 1012.27 1011.85 1011.38 1010.89 1010.38 1009.88 1009.38 1008.89 1008.42 1007.96 1007.51 1007.09 1006.68 1006.30 1005.93 1005.58 1005.25 1004.92 1004.59 1004.26 1003.91 1003.55 1003.19 1002.82 1002.46 1002.11 1001.81 1001.55 1001.35 1001.22 1001.16 1001.16 1001.23 1001.35 1001.51 1001.71 1001.93
1013.01 1013.08 1013.09 1013.02 1012.85 1012.60 1012.27 1011.87 1011.43 1010.96 1010.48 1010.00 1009.52 1009.06 1008.61 1008.17 1007.73 1007.30 1006.86 1006.42 1005.98 1005.55 1005.13 1004.72 1004.31 1003.92 1003.52 1003.13 1002.74 1002.35 1001.97 1001.59 1001.24 1000.93 1000.66 1000.45 1000.32 1000.27 1000.30 1000.41 1000.59 1000.84 1001.13 1001.46
1012.92 1012.96 1012.93 1012.82 1012.61 1012.32 1011.96 1011.54 1011.09 1010.62 1010.15 1009.69 1009.25 1008.82 1008.39 1007.96 1007.53 1007.07 1006.60 1006.10 1005.59 1005.07 1004.55 1004.04 1003.54 1003.06 1002.60 1002.16 1001.74 1001.33 1000.93 1000.56 1000.21 999.91 999.65 999.46 999.35 999.33 999.40 999.56 999.82 1000.15 1000.54 1000.98
1012.83 1012.86 1012.81 1012.67 1012.44 1012.13 1011.74 1011.31 1010.85 1010.38 1009.92 1009.47 1009.05 1008.63 1008.21 1007.78 1007.33 1006.84 1006.31 1005.74 1005.13 1004.51 1003.88 1003.26 1002.66 1002.09 1001.56 1001.06 1000.61 1000.18 999.79 999.43 999.10 998.82 998.60 998.44 998.37 998.39 998.51 998.73 999.06 999.47 999.95 1000.47
1012.74 1012.78 1012.73 1012.58 1012.34 1012.01 1011.61 1011.17 1010.71 1010.24 1009.78 1009.35 1008.93 1008.51 1008.09 1007.64 1007.15 1006.61 1006.01 1005.35 1004.65 1003.92 1003.18 1002.45 1001.75 1001.09 1000.49 999.95 999.47 999.03 998.65 998.31 998.02 997.77 997.59 997.48 997.45 997.51 997.69 997.97 998.35 998.82 999.36 999.94
1012.65 1012.70 1012.67 1012.52 1012.28 1011.95 1011.56 1011.11 1010.65 1010.18 1009.73 1009.30 1008.87 1008.45 1008.01 1007.53 1007.00 1006.40 1005.73 1004.99 1004.20 1003.37 1002.52 1001.70 1000.91 1000.18 999.52 998.94 998.44 998.00 997.63 997.32 997.07 996.86 996.72 996.65 996.67 996.77 996.98 997.30 997.72 998.22 998.80 999.41
1012.55 1012.63 1012.61 1012.48 1012.25 1011.93 1011.54 1011.10 1010.64 1010.18 1009.73 1009.30 1008.87 1008.44 1007.98 1007.47 1006.90 1006.25 1005.52 1004.71 1003.83 1002.92 1001.99 1001.09 1000.23 999.44 998.74 998.13 997.61 997.18 996.83 996.55 996.32 996.16 996.06 996.02 996.07 996.20 996.43 996.76 997.19 997.70 998.28 998.89
1012.45 1012.54 1012.53 1012.42 1012.20 1011.90 1011.52 1011.09 1010.65 1010.20 1009.76 1009.32 1008.90 1008.46 1007.98 1007.45 1006.85 1006.16 1005.38 1004.52 1003.58 1002.61 1001.63 1000.66 999.76 998.93 998.19 997.56 997.04 996.62 996.28 996.02 995.82 995.68 995.61 995.60 995.66 995.80 996.03 996.36 996.77 997.26 997.82 998.40
1012.34 1012.44 1012.44 1012.34 1012.13 1011.84 1011.48 1011.07 1010.64 1010.20 1009.77 1009.35 1008.93 1008.48 1008.01 1007.47 1006.85 1006.13 1005.33 1004.43 1003.47 1002.46 1001.44 1000.45 999.51 998.65 997.90 997.26 996.73 996.31 995.98 995.73 995.55 995.42 995.36 995.36 995.42 995.55 995.77 996.07 996.45 996.90 997.42 997.97
1012.23 1012.33 1012.33 1012.23 1012.03 1011.74 1011.40 1011.00 1010.59 1010.18 1009.76 1009.36 1008.94 1008.51 1008.04 1007.50 1006.88 1006.16 1005.35 1004.44 1003.46 1002.44 1001.41 1000.41 999.46 998.59 997.82 997.17 996.64 996.21 995.87 995.62 995.44 995.32 995.26 995.25 995.30 995.41 995.60 995.86 996.20 996.61 997.08 997.58
1012.13 1012.21 1012.20 1012.10 1011.90 1011.62 1011.28 1010.90 1010.51 1010.11 1009.72 1009.33 1008.94 1008.53 1008.07 1007.54 1006.93 1006.23 1005.42 1004.52 1003.55 1002.54 1001.51 1000.50 999.55 998.67 997.90 997.24 996.69 996.25 995.90 995.64 995.45 995.32 995.24 995.22 995.24 995.33 995.49 995.72 996.01 996.37 996.79 997.25
1012.02 1012.09 1012.07 1011.95 1011.74 1011.46 1011.13 1010.76 1010.39 1010.02 1009.65 1009.29 1008.92 1008.54 1008.10 1007.60 1007.01 1006.33 1005.55 1004.67 1003.72 1002.72 1001.70 1000.70 999.74 998.86 998.07 997.40 996.83 996.37 996.00 995.72 995.51 995.36 995.27 995.22 995.23 995.30 995.42 995.62 995.87 996.20 996.57 996.99
1011.92 1011.97 1011.92 1011.79 1011.57 1011.28 1010.96 1010.61 1010.25 1009.90 1009.57 1009.24 1008.91 1008.55 1008.15 1007.68 1007.12 1006.47 1005.72 1004.87 1003.94 1002.96 1001.95 1000.96 1000.00 999.11 998.31 997.62 997.02 996.54 996.14 995.83 995.60 995.43 995.32 995.26 995.25 995.30 995.41 995.58 995.81 996.09 996.44 996.82
1011.80 1011.83 1011.77 1011.61 1011.38 1011.09 1010.77 1010.44 1010.10 1009.79 1009.49 1009.19 1008.90 1008.59 1008.22 1007.79 1007.28 1006.66 1005.94 1005.12 1004.22 1003.26 1002.27 1001.28 1000.32 999.43 998.60 997.88 997.26 996.74 996.32 995.99 995.73 995.54 995.42 995.35 995.33 995.37 995.47 995.62 995.83 996.10 996.41 996.77
1011.66 1011.67 1011.59 1011.42 1011.18 1010.90 1010.58 1010.27 1009.96 1009.68 1009.42 1009.17 1008.93 1008.66 1008.34 1007.95 1007.48 1006.90 1006.22 1005.44 1004.56 1003.63 1002.65 1001.67 1000.71 999.80 998.97 998.22 997.57 997.02 996.57 996.21 995.93 995.73 995.59 995.52 995.51 995.55 995.64 995.79 995.99 996.25 996.54 996.87
1011.47 1011.48 1011.38 1011.21 1010.97 1010.69 1010.39 1010.11 1009.84 1009.60 1009.39 1009.19 1008.99 1008.78 1008.51 1008.17 1007.74 1007.21 1006.57 1005.83 1004.99 1004.08 1003.12 1002.15 1001.20 1000.28 999.44 998.67 998.00 997.42 996.95 996.57 996.27 996.06 995.91 995.84 995.83 995.88 995.98 996.13 996.33 996.58 996.86 997.17
1011.23 1011.23 1011.14 1010.97 1010.75 1010.49 1010.22 1009.97 1009.75 1009.56 1009.40 1009.25 1009.11 1008.95 1008.74 1008.45 1008.07 1007.59 1007.00 1006.30 1005.50 1004.62 1003.70 1002.76 1001.82 1000.91 1000.06 999.29 998.60 998.01 997.51 997.12 996.81 996.58 996.44 996.36 996.36 996.41 996.51 996.67 996.87 997.11 997.38 997.67
Thickness
5766 5777 5779 5774 5769 5764 5750 5737 5720 5714 5702 5694 5689 5683 5678 5673 5667 5660 5655 5650 5643 5634 5627 5620 5615 5610 5606 5602 5599 5595 5592 5590 5588 5587 5587 5588 5589 5591 5593 5596 5602 5607 5611 5618
5757 5771 5774 5765 5757 5749 5737 5727 5717 5709 5698 5694 5687 5678 5670 5662 5655 5647 5643 5637 5628 5620 5612 5605 5599 5593 5589 5584 5580 5576 5573 5571 5571 5570 5570 5571 5572 5574 5576 5579 5583 5587 5593 5599
5742 5761 5759 5735 5729 5726 5719 5715 5705 5691 5688 5684 5672 5663 5657 5651 5643 5638 5629 5619 5609 5601 5594 5587 5580 5575 5569 5565 5562 5559 5556 5555 5554 5553 5554 5555 5556 5558 5559 5560 5562 5566 5572 5579
5740 5743 5717 5715 5730 5720 5707 5705 5701 5693 5681 5670 5661 5656 5650 5643 5633 5621 5611 5602 5593 5585 5578 5572 5567 5561 5557 5553 5550 5548 5546 5544 5543 5543 5543 5543 5544 5543 5543 5544 5544 5547 5551 5558
5730 5723 5716 5711 5712 5703 5690 5685 5684 5672 5663 5657 5652 5643 5639 5633 5619 5606 5597 5589 5580 5573 5567 5561 5556 5552 5549 5546 5544 5542 5540 5539 5539 5538 5538 5537 5536 5536 5534 5534 5534 5534 5538 5543
5725 5708 5699 5695 5704 5704 5689 5674 5664 5658 5648 5642 5634 5620 5619 5615 5604 5595 5585 5576 5568 5563 5558 5554 5551 5547 5544 5541 5540 5538 5537 5537 5536 5535 5534 5533 5532 5531 5530 5529 5528 5528 5531 5535
5717 5705 5703 5699 5700 5693 5666 5657 5659 5652 5642 5632 5620 5610 5608 5603 5593 5582 5573 5566 5561 5556 5551 5548 5545 5542 5539 5537 5535 5535 5535 5534 5533 5531 5530 5530 5530 5529 5527 5525 5524 5524 5525 5528
5704 5694 5684 5695 5687 5668 5658 5659 5652 5643 5633 5623 5614 5607 5598 5589 5580 5571 5565 5560 5555 5550 5546 5543 5540 5536 5533 5531 5530 5528 5527 5527 5526 5526 5525 5527 5526 5526 5525 5523 5521 5522 5522 5524
5698 5691 5695 5692 5679 5672 5663 5651 5642 5633 5624 5615 5605 5596 5587 5579 5572 5565 5559 5554 5548 5542 5539 5535 5531 5527 5524 5523 5521 5519 5518 5518 5518 5518 5518 5519 5519 5520 5520 5520 5520 5521 5522 5523
5697 5697 5693 5685 5676 5666 5656 5644 5636 5627 5617 5606 5595 5587 5579 5572 5566 5559 5553 5546 5540 5534 5530 5526 5521 5517 5514 5512 5510 5509 5508 5509 5509 5509 5511 5513 5514 5515 5516 5518 5519 5520 5520 5521
5691 5689 5680 5676 5665 5656 5649 5640 5630 5620 5609 5599 5589 5581 5572 5565 5559 5552 5545 5539 5532 5524 5519 5516 5512 5509 5505 5503 5501 5500 5499 5499 5500 5502 5504 5507 5509 5510 5512 5514 5515 5515 5517 5518
5676 5675 5666 5660 5657 5650 5640 5631 5622 5613 5603 5594 5583 5573 5566 5558 5550 5543 5536 5529 5522 5516 5510 5507 5502 5499 5497 5494 5492 5491 5491 5491 5492 5493 5496 5500 5503 5506 5509 5510 5511 5511 5512 5513
5681 5675 5666 5659 5652 5644 5634 5626 5617 5606 5596 5587 5577 5567 5558 5550 5543 5535 5526 5519 5512 5506 5501 5497 5494 5491 5489 5487 5485 5484 5484 5484 5484 5486 5489 5492 5496 5498 5502 5505 5505 5506 5507 5508
5679 5669 5658 5652 5645 5638 5628 5620 5612 5601 5591 5580 5570 5561 5552 5543 5535 5526 5518 5511 5505 5499 5495 5491 5488 5486 5484 5481 5480 5479 5479 5480 5480 5481 5484 5487 5491 5494 5497 5500 5503 5506 5504 5503
5671 5662 5653 5648 5640 5632 5623 5615 5605 5595 5585 5575 5564 5554 5544 5536 5527 5520 5513 5506 5500 5495 5491 5488 5485 5484 5481 5478 5477 5476 5476 5477 5477 5479 5481 5484 5487 5491 5495 5498 5500 5503 5505 5502
5665 5658 5651 5641 5633 5625 5617 5608 5597 5588 5579 5568 5559 5549 5539 5530 5523 5516 5509 5502 5496 5492 5489 5486 5484 5482 5480 5478 5476 5476 5476 5477 5477 5478 5480 5482 5486 5489 5493 5496 5499 5501 5504 5505
5657 5648 5641 5634 5626 5619 5610 5601 5591 5582 5572 5563 5553 5544 5536 5529 5522 5515 5508 5501 5495 5491 5488 5485 5483 5482 5479 5478 5477 5477 5477 5478 5479 5480 5481 5483 5487 5490 5494 5496 5499 5503 5506 5508
5656 5647 5638 5629 5620 5613 5605 5596 5587 5577 5567 5557 5549 5541 5534 5527 5519 5512 5507 5503 5499 5496 5492 5487 5484 5482 5481 5480 5479 5479 5480 5481 5482 5484 5485 5487 5490 5493 5496 5499 5502 5505 5507 5506
5653 5644 5636 5626 5618 5609 5600 5592 5583 5573 5563 5554 5546 5538 5531 5524 5518 5512 5509 5505 5502 5499 5495 5491 5486 5486 5485 5484 5483 5484 5485 5487 5488 5490 5491 5491 5494 5497 5500 5502 5506 5509 5511 5510
5648 5640 5632 5623 5615 5605 5597 5589 5580 5570 5561 5552 5544 5537 5532 5526 5520 5516 5512 5508 5504 5499 5496 5494 5493 5493 5492 5491 5489 5491 5493 5494 5496 5497 5499 5501 5502 5504 5506 5509 5511 5513 5515 5517
5642 5634 5626 5618 5611 5603 5594 5585 5577 5568 5559 5550 5543 5537 5532 5527 5523 5519 5516 5515 5511 5506 5503 5502 5502 5501 5500 5497 5498 5501 5503 5504 5505 5506 5508 5509 5510 5512 5515 5516 5518 5521 5523 5526
5636 5628 5621 5614 5607 5599 5592 5585 5576 5566 5557 5549 5543 5538 5533 5530 5527 5524 5519 5516 5513 5510 5510 5512 5511 5508 5507 5506 5511 5513 5514 5515 5516 5517 5518 5519 5521 5523 5524 5526 5528 5530 5532 5536
5630 5623 5616 5610 5603 5596 5591 5584 5574 5565 5556 5549 5543 5538 5533 5529 5526 5524 5524 5522 5519 5517 5519 5520 5517 5516 5517 5522 5525 5526 5527 5527 5528 5528 5529 5531 5533 5534 5536 5537 5539 5541 5543 5547
5625 5619 5613 5608 5601 5596 5589 5582 5573 5564 5555 5550 5543 5538 5534 5531 5530 5527 5524 5525 5525 5525 5528 5527 5526 5528 5531 5536 5538 5540 5541 5540 5541 5541 5542 5543 5545 5546 5548 5550 5551 5553 5556 5559
5622 5615 5612 5605 5599 5593 5587 5580 5572 5564 5556 5550 5544 5539 5535 5531 5528 5529 5529 5531 5532 5533 5536 5538 5537 5539 5544 5547 5549 5551 5553 5553 5554 5554 5554 5555 5556 5557 5559 5561 5563 5565 5568 5571
5619 5615 5610 5602 5596 5590 5583 5575 5568 5561 5554 5548 5543 5539 5536 5533 5532 5532 5533 5535 5537 5538 5541 5543 5545 5547 5550 5553 5557 5559 5561 5563 5565 5566 5566 5568 5569 5570 5571 5573 5574 5577 5579 5582
5618 5614 5607 5601 5594 5586 5578 5571 5565 5558 5551 5543 5540 5537 5534 5533 5532 5532 5534 5536 5539 5541 5544 5546 5548 5551 5554 5557 5560 5563 5566 5568 5571 5574 5576 5577 5578 5580 5581 5583 5585 5586 5587 5589